• In Deutschland
  • Länderverzeichnis
  • Für 7 Tage
  • Wassertemperatur
  • Satellitenkarten
  • Wetterkarte
  • Widgets
  • user-avatar
    Anmelden

    Stündliche Wetter Djambala

    Heute, 20 August, Sonntag

    Zeit Temperatur Niederschläge Wind Luftdruck Luftfeuchtigkeit
    00:00 +25°C° 1,4 mm 2 m/S 695 mmHg 72%
    01:00 +25°C° 0 mm 1 m/S 695 mmHg 73%
    02:00 +24°C° 0,1 mm 2 m/S 695 mmHg 75%
    03:00 +24°C° 0,1 mm 2 m/S 695 mmHg 78%
    04:00 +23°C° 0,1 mm 2 m/S 695 mmHg 81%
    05:00 +23°C° 0 mm 2 m/S 696 mmHg 81%
    06:00 +22°C° 0 mm 3 m/S 696 mmHg 82%
    07:00 +22°C° 0 mm 3 m/S 696 mmHg 82%
    08:00 +24°C° 0,2 mm 3 m/S 697 mmHg 77%
    09:00 +25°C° 0,2 mm 3 m/S 697 mmHg 71%
    10:00 +26°C° 0,2 mm 3 m/S 697 mmHg 65%
    11:00 +27°C° 0 mm 2 m/S 697 mmHg 62%
    12:00 +28°C° 0 mm 2 m/S 696 mmHg 58%
    13:00 +29°C° 0 mm 2 m/S 696 mmHg 55%
    14:00 +29°C° 0,2 mm 2 m/S 695 mmHg 54%
    15:00 +29°C° 0,2 mm 2 m/S 695 mmHg 54%
    16:00 +29°C° 0,2 mm 2 m/S 694 mmHg 53%
    17:00 +29°C° 0,4 mm 2 m/S 695 mmHg 57%
    18:00 +28°C° 0,4 mm 2 m/S 695 mmHg 60%
    19:00 +27°C° 0,4 mm 1 m/S 695 mmHg 63%
    20:00 +26°C° 0,3 mm 2 m/S 695 mmHg 66%
    21:00 +26°C° 0,3 mm 2 m/S 696 mmHg 68%
    22:00 +26°C° 0,3 mm 2 m/S 696 mmHg 70%
    23:00 +25°C° 0 mm 2 m/S 696 mmHg 70%

    Morgen, 21 August, Montag

    Zeit Temperatur Niederschläge Wind Luftdruck Luftfeuchtigkeit
    00:00 +25°C° 0 mm 2 m/S 696 mmHg 70%
    01:00 +25°C° 0 mm 2 m/S 696 mmHg 71%
    02:00 +24°C° 0,1 mm 2 m/S 695 mmHg 73%
    03:00 +24°C° 0,1 mm 2 m/S 695 mmHg 76%
    04:00 +23°C° 0,1 mm 2 m/S 695 mmHg 78%
    05:00 +22°C° 0,2 mm 3 m/S 695 mmHg 79%
    06:00 +22°C° 0,2 mm 3 m/S 696 mmHg 80%
    07:00 +22°C° 0,2 mm 3 m/S 696 mmHg 81%
    08:00 +23°C° 0 mm 4 m/S 697 mmHg 75%
    09:00 +26°C° 0 mm 4 m/S 697 mmHg 68%
    10:00 +27°C° 0 mm 4 m/S 698 mmHg 62%
    11:00 +28°C° 0,1 mm 4 m/S 697 mmHg 58%
    12:00 +29°C° 0,1 mm 4 m/S 696 mmHg 55%
    13:00 +30°C° 0,1 mm 4 m/S 696 mmHg 51%
    14:00 +30°C° 0,2 mm 4 m/S 695 mmHg 51%
    15:00 +30°C° 0,2 mm 4 m/S 694 mmHg 51%
    16:00 +29°C° 0,2 mm 4 m/S 694 mmHg 51%
    17:00 +28°C° 0,1 mm 3 m/S 694 mmHg 54%
    18:00 +28°C° 0,1 mm 3 m/S 694 mmHg 58%
    19:00 +27°C° 0,1 mm 3 m/S 695 mmHg 61%
    20:00 +26°C° 0 mm 3 m/S 695 mmHg 63%
    21:00 +25°C° 0 mm 4 m/S 695 mmHg 65%
    22:00 +25°C° 0 mm 4 m/S 696 mmHg 67%
    23:00 +23°C° 0,1 mm 4 m/S 695 mmHg 69%

    übermorgen, 22 August, Dienstag

    Zeit Temperatur Niederschläge Wind Luftdruck Luftfeuchtigkeit
    00:00 +24°C° 0,1 mm 3 m/S 695 mmHg 71%
    01:00 +22°C° 0,1 mm 3 m/S 695 mmHg 72%
    02:00 +22°C° 0,7 mm 3 m/S 695 mmHg 74%
    03:00 +21°C° 0,7 mm 3 m/S 695 mmHg 77%
    04:00 +21°C° 0,7 mm 3 m/S 695 mmHg 79%
    05:00 +21°C° 0,1 mm 3 m/S 695 mmHg 79%
    06:00 +21°C° 0,1 mm 3 m/S 695 mmHg 79%
    07:00 +21°C° 0,1 mm 4 m/S 696 mmHg 79%
    08:00 +22°C° 0 mm 4 m/S 696 mmHg 71%
    09:00 +25°C° 0 mm 3 m/S 697 mmHg 63%
    10:00 +26°C° 0 mm 3 m/S 697 mmHg 55%
    11:00 +28°C° 0 mm 3 m/S 697 mmHg 50%
    12:00 +30°C° 0 mm 2 m/S 696 mmHg 44%
    13:00 +31°C° 0 mm 2 m/S 695 mmHg 38%
    14:00 +31°C° 0 mm 2 m/S 695 mmHg 38%
    15:00 +32°C° 0 mm 2 m/S 694 mmHg 37%
    16:00 +32°C° 0 mm 2 m/S 693 mmHg 36%
    17:00 +31°C° 0 mm 2 m/S 693 mmHg 39%
    18:00 +30°C° 0 mm 2 m/S 694 mmHg 42%
    19:00 +29°C° 0 mm 2 m/S 694 mmHg 45%
    20:00 +28°C° 0 mm 2 m/S 694 mmHg 47%
    21:00 +27°C° 0 mm 1 m/S 695 mmHg 49%
    22:00 +27°C° 0 mm 1 m/S 695 mmHg 51%
    23:00 +27°C° 0 mm 1 m/S 695 mmHg 53%

    23 August, Mittwoch

    Zeit Temperatur Niederschläge Wind Luftdruck Luftfeuchtigkeit
    00:00 +26°C° 0 mm 2 m/S 694 mmHg 54%
    01:00 +26°C° 0 mm 2 m/S 694 mmHg 56%
    02:00 +25°C° 0 mm 2 m/S 694 mmHg 57%
    03:00 +25°C° 0 mm 3 m/S 694 mmHg 59%
    04:00 +25°C° 0 mm 3 m/S 694 mmHg 61%
    05:00 +24°C° 0 mm 3 m/S 694 mmHg 62%
    06:00 +24°C° 0 mm 3 m/S 694 mmHg 63%
    07:00 +24°C° 0 mm 3 m/S 695 mmHg 65%
    08:00 +25°C° 0 mm 3 m/S 696 mmHg 62%
    09:00 +26°C° 0 mm 3 m/S 696 mmHg 58%
    10:00 +28°C° 0 mm 3 m/S 697 mmHg 55%
    11:00 +28°C° 0 mm 3 m/S 696 mmHg 53%
    12:00 +29°C° 0 mm 3 m/S 695 mmHg 51%
    13:00 +30°C° 0 mm 3 m/S 694 mmHg 50%
    14:00 +30°C° 0,2 mm 3 m/S 694 mmHg 50%
    15:00 +30°C° 0,2 mm 2 m/S 694 mmHg 50%
    16:00 +30°C° 0,2 mm 2 m/S 693 mmHg 50%
    17:00 +29°C° 0,2 mm 2 m/S 694 mmHg 54%
    18:00 +28°C° 0,2 mm 2 m/S 694 mmHg 57%
    19:00 +27°C° 0,2 mm 2 m/S 694 mmHg 61%
    20:00 +26°C° 0,4 mm 2 m/S 695 mmHg 64%
    21:00 +26°C° 0,4 mm 2 m/S 695 mmHg 67%
    22:00 +25°C° 0,4 mm 2 m/S 695 mmHg 70%
    23:00 +25°C° 0,3 mm 2 m/S 695 mmHg 71%

    24 August, Donnerstag

    Zeit Temperatur Niederschläge Wind Luftdruck Luftfeuchtigkeit
    00:00 +24°C° 0,3 mm 2 m/S 695 mmHg 72%
    01:00 +24°C° 0,3 mm 2 m/S 694 mmHg 73%
    02:00 +24°C° 0 mm 2 m/S 694 mmHg 75%
    03:00 +23°C° 0 mm 2 m/S 694 mmHg 77%
    04:00 +23°C° 0 mm 2 m/S 694 mmHg 79%
    05:00 +23°C° 0 mm 2 m/S 695 mmHg 79%
    06:00 +21°C° 0 mm 2 m/S 695 mmHg 79%
    07:00 +21°C° 0 mm 2 m/S 696 mmHg 79%
    08:00 +24°C° 0 mm 3 m/S 696 mmHg 72%
    09:00 +26°C° 0 mm 3 m/S 696 mmHg 65%
    10:00 +28°C° 0 mm 3 m/S 697 mmHg 58%
    11:00 +29°C° 0 mm 3 m/S 696 mmHg 54%
    12:00 +30°C° 0 mm 3 m/S 695 mmHg 50%
    13:00 +32°C° 0 mm 4 m/S 695 mmHg 46%
    14:00 +31°C° 0 mm 3 m/S 694 mmHg 47%
    15:00 +30°C° 0 mm 3 m/S 694 mmHg 48%
    16:00 +30°C° 0 mm 3 m/S 693 mmHg 49%
    17:00 +29°C° 1 mm 3 m/S 694 mmHg 54%
    18:00 +28°C° 1 mm 3 m/S 694 mmHg 59%
    19:00 +27°C° 1 mm 2 m/S 694 mmHg 64%
    20:00 +26°C° 0,8 mm 2 m/S 695 mmHg 66%
    21:00 +26°C° 0,8 mm 3 m/S 695 mmHg 68%
    22:00 +25°C° 0,8 mm 3 m/S 696 mmHg 70%
    23:00 +25°C° 0,1 mm 3 m/S 695 mmHg 72%

    25 August, Freitag

    Zeit Temperatur Niederschläge Wind Luftdruck Luftfeuchtigkeit
    00:00 +24°C° 0,1 mm 3 m/S 695 mmHg 73%
    01:00 +24°C° 0,1 mm 3 m/S 695 mmHg 74%
    02:00 +24°C° 0 mm 3 m/S 695 mmHg 75%
    03:00 +22°C° 0 mm 3 m/S 695 mmHg 76%
    04:00 +23°C° 0 mm 2 m/S 695 mmHg 77%
    05:00 +22°C° 0 mm 3 m/S 695 mmHg 78%
    06:00 +22°C° 0 mm 3 m/S 696 mmHg 78%
    07:00 +21°C° 0 mm 3 m/S 696 mmHg 79%
    08:00 +24°C° 0 mm 3 m/S 696 mmHg 73%
    09:00 +25°C° 0 mm 3 m/S 697 mmHg 68%
    10:00 +27°C° 0 mm 3 m/S 697 mmHg 62%
    11:00 +28°C° 0,1 mm 3 m/S 696 mmHg 57%
    12:00 +29°C° 0,1 mm 3 m/S 696 mmHg 53%
    13:00 +30°C° 0,1 mm 3 m/S 695 mmHg 48%
    14:00 +30°C° 0,1 mm 3 m/S 695 mmHg 48%
    15:00 +30°C° 0,1 mm 3 m/S 694 mmHg 47%
    16:00 +30°C° 0,1 mm 3 m/S 694 mmHg 47%
    17:00 +30°C° 0,3 mm 2 m/S 694 mmHg 50%
    18:00 +29°C° 0,3 mm 2 m/S 694 mmHg 53%
    19:00 +28°C° 0,3 mm 2 m/S 695 mmHg 55%
    20:00 +28°C° 0,3 mm 2 m/S 695 mmHg 58%
    21:00 +27°C° 0,3 mm 2 m/S 695 mmHg 61%
    22:00 +26°C° 0,3 mm 3 m/S 696 mmHg 64%
    23:00 +26°C° 0 mm 3 m/S 695 mmHg 65%
    Mehr zeigen